Location: Woodhurst
(52.3667°N, 0.0667°W)
Time: 22:03:57
(UTC+00:00)

NOSS 3-1 (A) - Pass Details

Date: 19 May 2025
Orbit: 667 x 1541 km, 63.4° (Epoch: 14 June)

Event Time Altitude Azimuth Distance (km) Brightness Sun altitude
Exits shadow 22:37:13 - 219° (SW) 2,570 5.4 -15.6°
Reaches altitude 10° 22:38:06 10° 218° (SW) 2,222 5.1 -15.6°
Maximum altitude 22:43:07 79° 133° (SE) 834 3.0 -15.9°
Drops below altitude 10° 22:49:14 10° 47° (NE) 2,687 6.1 -16.2°
Sets 22:52:05 0° 47° (NE) 3,777 7.0 -16.3°
